This is the latest recevied weather packets stored in our database for station/object R2AJV-13. If no packets are shown the sender has not sent any weather packets the latest 10 day(s).
| Time | Temp. | Humidity | Pressure | Rain* | Wind** | Luminosity | Snow |
|---|---|---|---|---|---|---|---|
| 1788135338 | 15° C | 99% | 1003.8 hPa | 0 mm | - | - | - |
| 1788134428 | 15° C | 99% | 1003.6 hPa | 0 mm | - | - | - |
| 1788133523 | 15° C | 99% | 1003.8 hPa | 0 mm | - | - | - |
| 1788132672 | 15° C | 99% | 1003.8 hPa | 0 mm | - | - | - |
| 1788131762 | 15° C | 99% | 1003.9 hPa | 0 mm | - | - | - |
| 1788130850 | 15° C | 99% | 1003.8 hPa | 0 mm | - | - | - |
| 1788129940 | 15° C | 99% | 1003.7 hPa | 0 mm | - | - | - |
| 1788129035 | 15° C | 99% | 1003.7 hPa | 0 mm | - | - | - |
| 1788128124 | 15° C | 99% | 1003.8 hPa | 0 mm | - | - | - |
| 1788127274 | 15° C | 99% | 1003.8 hPa | 0 mm | - | - | - |
| 1788126363 | 15° C | 99% | 1003.8 hPa | 0 mm | - | - | - |
| 1788125459 | 15° C | 99% | 1003.8 hPa | 0 mm | - | - | - |
| 1788123664 | 15° C | 99% | 1003.8 hPa | 0 mm | - | - | - |
| 1788122759 | 15° C | 99% | 1003.9 hPa | 0 mm | - | - | - |
| 1788120938 | 15° C | 99% | 1003.8 hPa | 0 mm | - | - | - |
| 1788120028 | 15° C | 99% | 1003.8 hPa | 0 mm | - | - | - |
| 1788119123 | 15° C | 99% | 1003.6 hPa | 0 mm | - | - | - |
| 1788118272 | 15° C | 99% | 1003.7 hPa | 0 mm | - | - | - |
| 1788117361 | 15° C | 99% | 1003.7 hPa | 0.25 mm | - | - | - |
| 1788116451 | 15° C | 99% | 1003.7 hPa | 0.51 mm | - | - | - |
| 1788115541 | 15° C | 99% | 1003.7 hPa | 1.27 mm | - | - | - |
| 1788114636 | 15° C | 99% | 1003.8 hPa | 1.52 mm | - | - | - |
| 1788113725 | 15° C | 99% | 1003.8 hPa | 1.27 mm | - | - | - |
| 1788112875 | 15° C | 99% | 1003.9 hPa | 1.02 mm | - | - | - |
| 1788111964 | 15° C | 99% | 1003.8 hPa | 0.51 mm | - | - | - |
* Rain latest hour (hover to see other rain measurements)
** Current wind speed in m/s (hover to see current wind gust speed)